When you browse on this site, cookies collect data to enhance your experience and personalize the content and advertising you see.
Visit our Privacy Policy to learn more. By continuing to use the site, you agree to this use of cookies and data.
  • Em Portugal
  • Lista de países
  • Para 7 dias
  • Temperatura da água
  • Mapas de satélite
  • Mapa do tempo
  • Widgets de tempo
  • user-avatar
    Iniciar Sessão

    Previsão horária em Blagoevgrad

    Hoje, 27 Maio, Segunda-feira

    Tempo Temperatura Precipitação Vento Pressão Humidade
    00:00 +16°C° 0 mm 2 m/s 721 mmHg 87%
    01:00 +16°C° 0 mm 1 m/s 720 mmHg 88%
    02:00 +15°C° 0 mm 1 m/s 720 mmHg 88%
    03:00 +15°C° 0 mm 1 m/s 720 mmHg 88%
    04:00 +15°C° 0 mm 1 m/s 720 mmHg 87%
    05:00 +15°C° 0 mm 1 m/s 720 mmHg 87%
    06:00 +18°C° 0 mm 1 m/s 720 mmHg 78%
    07:00 +20°C° 0 mm 2 m/s 720 mmHg 70%
    08:00 +23°C° 0 mm 2 m/s 721 mmHg 61%
    09:00 +24°C° 0 mm 2 m/s 721 mmHg 56%
    10:00 +25°C° 0 mm 3 m/s 721 mmHg 51%
    11:00 +27°C° 0 mm 4 m/s 721 mmHg 46%
    12:00 +26°C° 0 mm 4 m/s 721 mmHg 47%
    13:00 +26°C° 0 mm 4 m/s 720 mmHg 48%
    14:00 +26°C° 0 mm 3 m/s 720 mmHg 50%
    15:00 +26°C° 0.1 mm 3 m/s 720 mmHg 51%
    16:00 +25°C° 0.1 mm 3 m/s 719 mmHg 52%
    17:00 +25°C° 0.1 mm 3 m/s 719 mmHg 54%
    18:00 +22°C° 0 mm 3 m/s 719 mmHg 60%
    19:00 +20°C° 0 mm 3 m/s 718 mmHg 67%
    20:00 +19°C° 0 mm 2 m/s 718 mmHg 73%
    21:00 +18°C° 0 mm 2 m/s 718 mmHg 74%
    22:00 +17°C° 0 mm 2 m/s 718 mmHg 75%
    23:00 +16°C° 0 mm 2 m/s 718 mmHg 76%

    Amanhã, 28 Maio, Terça-feira

    Tempo Temperatura Precipitação Vento Pressão Humidade
    00:00 +16°C° 0 mm 2 m/s 718 mmHg 73%
    01:00 +16°C° 0 mm 2 m/s 717 mmHg 70%
    02:00 +15°C° 0 mm 2 m/s 717 mmHg 68%
    03:00 +15°C° 0 mm 2 m/s 717 mmHg 66%
    04:00 +15°C° 0 mm 2 m/s 717 mmHg 64%
    05:00 +15°C° 0 mm 2 m/s 717 mmHg 63%
    06:00 +17°C° 0 mm 2 m/s 717 mmHg 58%
    07:00 +19°C° 0 mm 3 m/s 717 mmHg 53%
    08:00 +22°C° 0 mm 3 m/s 717 mmHg 49%
    09:00 +24°C° 0 mm 3 m/s 717 mmHg 47%
    10:00 +25°C° 0 mm 4 m/s 717 mmHg 45%
    11:00 +26°C° 0 mm 5 m/s 717 mmHg 42%
    12:00 +27°C° 0 mm 5 m/s 717 mmHg 42%
    13:00 +27°C° 0 mm 5 m/s 716 mmHg 41%
    14:00 +27°C° 0 mm 5 m/s 716 mmHg 41%
    15:00 +27°C° 0 mm 5 m/s 716 mmHg 44%
    16:00 +26°C° 0 mm 4 m/s 715 mmHg 47%
    17:00 +26°C° 0 mm 4 m/s 715 mmHg 50%
    18:00 +24°C° 0.1 mm 3 m/s 715 mmHg 59%
    19:00 +20°C° 0.1 mm 3 m/s 715 mmHg 68%
    20:00 +18°C° 0.1 mm 2 m/s 715 mmHg 77%
    21:00 +18°C° 0 mm 2 m/s 716 mmHg 78%
    22:00 +17°C° 0 mm 2 m/s 716 mmHg 79%
    23:00 +17°C° 0 mm 2 m/s 716 mmHg 79%

    Depois de amanhã, 29 Maio, Quarta-feira

    Tempo Temperatura Precipitação Vento Pressão Humidade
    00:00 +16°C° 0 mm 2 m/s 716 mmHg 81%
    01:00 +16°C° 0 mm 2 m/s 716 mmHg 84%
    02:00 +15°C° 0 mm 1 m/s 717 mmHg 86%
    03:00 +15°C° 0 mm 1 m/s 717 mmHg 87%
    04:00 +15°C° 0 mm 1 m/s 717 mmHg 88%
    05:00 +14°C° 0 mm 1 m/s 717 mmHg 90%
    06:00 +16°C° 0 mm 1 m/s 717 mmHg 81%
    07:00 +20°C° 0 mm 1 m/s 717 mmHg 72%
    08:00 +22°C° 0 mm 1 m/s 718 mmHg 63%
    09:00 +23°C° 0 mm 2 m/s 718 mmHg 57%
    10:00 +24°C° 0 mm 2 m/s 718 mmHg 51%
    11:00 +25°C° 0 mm 3 m/s 718 mmHg 45%
    12:00 +26°C° 0 mm 3 m/s 718 mmHg 44%
    13:00 +27°C° 0 mm 3 m/s 718 mmHg 43%
    14:00 +27°C° 0 mm 4 m/s 718 mmHg 42%
    15:00 +27°C° 0 mm 3 m/s 718 mmHg 43%
    16:00 +26°C° 0 mm 3 m/s 717 mmHg 45%
    17:00 +26°C° 0 mm 3 m/s 717 mmHg 47%
    18:00 +24°C° 0 mm 3 m/s 718 mmHg 55%
    19:00 +21°C° 0 mm 2 m/s 718 mmHg 63%
    20:00 +20°C° 0 mm 1 m/s 718 mmHg 71%
    21:00 +19°C° 0 mm 1 m/s 718 mmHg 74%
    22:00 +18°C° 0 mm 1 m/s 718 mmHg 77%
    23:00 +15°C° 0 mm 0 m/s 719 mmHg 79%

    30 Maio, Quinta-feira

    Tempo Temperatura Precipitação Vento Pressão Humidade
    00:00 +16°C° 0 mm 1 m/s 719 mmHg 81%
    01:00 +16°C° 0 mm 1 m/s 719 mmHg 82%
    02:00 +15°C° 0 mm 1 m/s 719 mmHg 84%
    03:00 +15°C° 0 mm 1 m/s 719 mmHg 85%
    04:00 +15°C° 0 mm 1 m/s 719 mmHg 85%
    05:00 +15°C° 0 mm 1 m/s 719 mmHg 86%
    06:00 +18°C° 0 mm 1 m/s 719 mmHg 78%
    07:00 +20°C° 0 mm 1 m/s 719 mmHg 70%
    08:00 +22°C° 0 mm 1 m/s 720 mmHg 61%
    09:00 +23°C° 0.2 mm 1 m/s 720 mmHg 58%
    10:00 +24°C° 0.2 mm 1 m/s 720 mmHg 55%
    11:00 +25°C° 0.2 mm 1 m/s 720 mmHg 52%
    12:00 +25°C° 0.5 mm 1 m/s 720 mmHg 53%
    13:00 +25°C° 0.5 mm 1 m/s 719 mmHg 54%
    14:00 +26°C° 0.5 mm 1 m/s 719 mmHg 55%
    15:00 +25°C° 0.5 mm 1 m/s 719 mmHg 57%
    16:00 +25°C° 0.5 mm 2 m/s 719 mmHg 58%
    17:00 +24°C° 0.5 mm 2 m/s 718 mmHg 60%
    18:00 +21°C° 0.5 mm 2 m/s 718 mmHg 68%
    19:00 +19°C° 0.5 mm 2 m/s 718 mmHg 76%
    20:00 +17°C° 0.5 mm 2 m/s 718 mmHg 84%
    21:00 +16°C° 0.2 mm 2 m/s 719 mmHg 87%
    22:00 +16°C° 0.2 mm 2 m/s 719 mmHg 90%
    23:00 +15°C° 0.2 mm 2 m/s 719 mmHg 92%

    31 Maio, Sexta-feira

    Tempo Temperatura Precipitação Vento Pressão Humidade
    00:00 +15°C° 0.2 mm 2 m/s 719 mmHg 93%
    01:00 +14°C° 0.2 mm 2 m/s 719 mmHg 94%
    02:00 +14°C° 0.2 mm 1 m/s 719 mmHg 95%
    03:00 +14°C° 0.2 mm 2 m/s 719 mmHg 95%
    04:00 +14°C° 0.2 mm 2 m/s 719 mmHg 96%
    05:00 +14°C° 0.2 mm 2 m/s 719 mmHg 96%
    06:00 +15°C° 0.1 mm 2 m/s 719 mmHg 90%
    07:00 +15°C° 0.1 mm 2 m/s 719 mmHg 85%
    08:00 +16°C° 0.1 mm 3 m/s 719 mmHg 79%
    09:00 +17°C° 0.1 mm 2 m/s 719 mmHg 73%
    10:00 +18°C° 0.1 mm 2 m/s 719 mmHg 68%
    11:00 +19°C° 0.1 mm 2 m/s 719 mmHg 62%
    12:00 +20°C° 0.2 mm 2 m/s 718 mmHg 61%
    13:00 +20°C° 0.2 mm 2 m/s 718 mmHg 60%
    14:00 +21°C° 0.2 mm 2 m/s 718 mmHg 59%
    15:00 +20°C° 0.3 mm 3 m/s 718 mmHg 60%
    16:00 +20°C° 0.3 mm 3 m/s 718 mmHg 61%
    17:00 +20°C° 0.3 mm 3 m/s 717 mmHg 62%
    18:00 +19°C° 0.1 mm 3 m/s 717 mmHg 67%
    19:00 +17°C° 0.1 mm 2 m/s 717 mmHg 73%
    20:00 +16°C° 0.1 mm 2 m/s 717 mmHg 78%
    21:00 +15°C° 0 mm 2 m/s 717 mmHg 81%
    22:00 +14°C° 0 mm 2 m/s 717 mmHg 84%
    23:00 +13°C° 0 mm 1 m/s 717 mmHg 87%

    1 Junho, Sábado

    Tempo Temperatura Precipitação Vento Pressão Humidade
    00:00 +12°C° 0 mm 1 m/s 717 mmHg 88%
    01:00 +12°C° 0 mm 1 m/s 717 mmHg 89%
    02:00 +12°C° 0 mm 1 m/s 717 mmHg 90%
    03:00 +12°C° 0 mm 1 m/s 717 mmHg 91%
    04:00 +12°C° 0 mm 1 m/s 717 mmHg 91%
    05:00 +12°C° 0 mm 1 m/s 718 mmHg 91%
    06:00 +13°C° 0.1 mm 2 m/s 718 mmHg 88%
    07:00 +14°C° 0.1 mm 2 m/s 718 mmHg 85%
    08:00 +14°C° 0.1 mm 3 m/s 719 mmHg 82%
    09:00 +16°C° 0 mm 3 m/s 719 mmHg 73%
    10:00 +18°C° 0 mm 3 m/s 719 mmHg 64%
    11:00 +19°C° 0 mm 4 m/s 719 mmHg 56%
    12:00 +20°C° 0 mm 4 m/s 719 mmHg 53%
    13:00 +20°C° 0 mm 4 m/s 719 mmHg 51%
    14:00 +21°C° 0 mm 4 m/s 719 mmHg 49%
    15:00 +20°C° 0 mm 5 m/s 719 mmHg 51%
    16:00 +20°C° 0 mm 5 m/s 719 mmHg 53%
    17:00 +19°C° 0 mm 5 m/s 719 mmHg 55%
    18:00 +17°C° 0 mm 4 m/s 720 mmHg 61%
    19:00 +14°C° 0 mm 4 m/s 720 mmHg 68%
    20:00 +12°C° 0 mm 3 m/s 720 mmHg 74%
    21:00 +11°C° 0 mm 3 m/s 720 mmHg 77%
    22:00 +10°C° 0 mm 2 m/s 721 mmHg 81%
    23:00 +9°C° 0 mm 2 m/s 721 mmHg 85%
    Mostrar mais